ANA673 RJTT-RJOA

Flight info

Callsign ANA673
Flight time 1h 9m
Altitude 32000
Route TIARA GUSRO Y20 KAMMY Y202 AMURO
Aircraft B738/M-SDE2E3FGHIRWXY/LB1

Departure

Time 2026-04-26 13:21
Airport Tokyo Haneda International Airport (RJTT)

Arrival

Time 2026-04-26 14:30
Airport Hiroshima Airport (RJOA)
Time Latitude Longitude Altitude Speed Heading
2026-04-26 12:46 35.55267 139.78874 27 ft 0 kts 239°
2026-04-26 13:10 35.55273 139.78886 26 ft 2 kts 239°
2026-04-26 13:10 35.55281 139.78904 31 ft 2 kts 239°
2026-04-26 13:10 35.55289 139.78921 31 ft 2 kts 239°
2026-04-26 13:11 35.55297 139.78939 31 ft 2 kts 239°
2026-04-26 13:11 35.55302 139.78948 26 ft 0 kts 239°
2026-04-26 13:14 35.55304 139.78941 26 ft 1 kts 296°
2026-04-26 13:15 35.55333 139.78931 26 ft 7 kts 349°
2026-04-26 13:15 35.55384 139.78931 27 ft 8 kts 17°
2026-04-26 13:15 35.55419 139.78979 26 ft 8 kts 63°
2026-04-26 13:15 35.55438 139.79017 30 ft 8 kts 59°
2026-04-26 13:16 35.55478 139.79102 26 ft 10 kts 60°
2026-04-26 13:16 35.55535 139.79146 28 ft 11 kts 344°
2026-04-26 13:16 35.55601 139.79101 28 ft 11 kts 329°
2026-04-26 13:16 35.55665 139.79056 26 ft 11 kts 330°
2026-04-26 13:17 35.55803 139.78958 26 ft 13 kts 330°
2026-04-26 13:17 35.55891 139.78895 25 ft 15 kts 330°
2026-04-26 13:18 35.56064 139.78772 24 ft 14 kts 329°
2026-04-26 13:18 35.56147 139.78714 25 ft 14 kts 330°
2026-04-26 13:18 35.56319 139.78592 26 ft 14 kts 329°
2026-04-26 13:19 35.56404 139.78550 27 ft 13 kts
2026-04-26 13:19 35.56459 139.78632 26 ft 13 kts 60°
2026-04-26 13:19 35.56489 139.78719 29 ft 9 kts 104°
2026-04-26 13:19 35.56465 139.78744 29 ft 0 kts 151°
2026-04-26 13:20 35.56462 139.78746 29 ft 4 kts 151°
2026-04-26 13:20 35.56262 139.78887 30 ft 72 kts 150°
2026-04-26 13:21 35.55620 139.79344 26 ft 139 kts 150°
2026-04-26 13:21 35.55006 139.79779 127 ft 165 kts 149°
2026-04-26 13:21 35.53687 139.80690 1405 ft 158 kts 150°
2026-04-26 13:21 35.52851 139.81559 2258 ft 165 kts 131°
2026-04-26 13:22 35.52038 139.82711 2670 ft 194 kts 133°
2026-04-26 13:22 35.51065 139.83986 2976 ft 216 kts 135°
2026-04-26 13:22 35.49960 139.85364 3297 ft 237 kts 136°
2026-04-26 13:22 35.48733 139.86894 3558 ft 264 kts 135°
2026-04-26 13:23 35.47461 139.88513 4410 ft 266 kts 135°
2026-04-26 13:23 35.46214 139.90164 5435 ft 266 kts 129°
2026-04-26 13:23 35.45424 139.92248 6163 ft 278 kts 100°
2026-04-26 13:23 35.45591 139.94602 7051 ft 282 kts 71°
2026-04-26 13:24 35.46630 139.96660 7858 ft 287 kts 50°
2026-04-26 13:24 35.47990 139.98444 8740 ft 290 kts 43°
2026-04-26 13:24 35.49751 139.99747 9293 ft 303 kts 16°
2026-04-26 13:24 35.51832 139.99949 10125 ft 301 kts 347°
2026-04-26 13:25 35.53818 139.99051 10573 ft 315 kts 332°
2026-04-26 13:25 35.55179 139.98292 10678 ft 333 kts 335°
2026-04-26 13:25 35.57429 139.97264 10866 ft 357 kts 340°
2026-04-26 13:25 35.60726 139.96095 11305 ft 379 kts 348°
2026-04-26 13:26 35.62484 139.95966 11689 ft 385 kts
2026-04-26 13:26 35.65168 139.96213 12409 ft 388 kts
2026-04-26 13:26 35.67877 139.96334 13062 ft 392 kts 352°
2026-04-26 13:26 35.70473 139.95384 13721 ft 391 kts 329°
2026-04-26 13:27 35.72604 139.93348 14421 ft 387 kts 308°
2026-04-26 13:27 35.74077 139.90623 15208 ft 381 kts 292°
2026-04-26 13:27 35.74823 139.87532 16004 ft 377 kts 277°
2026-04-26 13:27 35.75181 139.84329 16720 ft 379 kts 275°
2026-04-26 13:28 35.75515 139.81099 17405 ft 382 kts 276°
2026-04-26 13:28 35.75875 139.77848 18094 ft 385 kts 277°
2026-04-26 13:28 35.76158 139.74584 18709 ft 387 kts 268°
2026-04-26 13:28 35.75764 139.71298 19299 ft 388 kts 252°
2026-04-26 13:29 35.74680 139.68253 19934 ft 389 kts 242°
2026-04-26 13:29 35.73404 139.65309 20542 ft 391 kts 241°
2026-04-26 13:29 35.72098 139.62363 21116 ft 393 kts 240°
2026-04-26 13:29 35.70794 139.59389 21708 ft 395 kts 240°
2026-04-26 13:30 35.69502 139.56396 22273 ft 397 kts 240°
2026-04-26 13:30 35.68214 139.53379 22808 ft 399 kts 240°
2026-04-26 13:30 35.66922 139.50345 23321 ft 402 kts 240°
2026-04-26 13:30 35.65929 139.47108 23767 ft 410 kts 253°
2026-04-26 13:31 35.65651 139.43639 24211 ft 418 kts 266°
2026-04-26 13:31 35.65755 139.40068 24732 ft 418 kts 267°
2026-04-26 13:31 35.65870 139.36502 25200 ft 417 kts 266°
2026-04-26 13:31 35.65953 139.32931 25642 ft 418 kts 266°
2026-04-26 13:32 35.66010 139.29357 26055 ft 418 kts 265°
2026-04-26 13:32 35.66053 139.25773 26460 ft 419 kts 265°
2026-04-26 13:32 35.66095 139.22184 26846 ft 419 kts 265°
2026-04-26 13:32 35.66139 139.18596 27190 ft 421 kts 265°
2026-04-26 13:33 35.66183 139.14984 27530 ft 423 kts 265°
2026-04-26 13:33 35.66172 139.11373 27941 ft 421 kts 262°
2026-04-26 13:33 35.66041 139.07792 28506 ft 416 kts 261°
2026-04-26 13:33 35.65865 139.04267 29231 ft 409 kts 261°
2026-04-26 13:34 35.65684 139.00802 29993 ft 402 kts 260°
2026-04-26 13:34 35.65512 138.97394 30557 ft 398 kts 260°
2026-04-26 13:34 35.65346 138.94004 30978 ft 396 kts 260°
2026-04-26 13:34 35.65239 138.91758 31159 ft 395 kts 260°
2026-04-26 13:35 35.65031 138.87243 31669 ft 395 kts 260°
2026-04-26 13:35 35.64878 138.83877 32042 ft 394 kts 260°
2026-04-26 13:35 35.64727 138.80547 32088 ft 396 kts 260°
2026-04-26 13:36 35.64416 138.73787 32106 ft 396 kts 260°
2026-04-26 13:36 35.64102 138.67050 32109 ft 394 kts 259°
2026-04-26 13:37 35.63762 138.60313 32113 ft 394 kts 259°
2026-04-26 13:37 35.63408 138.53587 32105 ft 394 kts 259°
2026-04-26 13:38 35.63055 138.46915 32094 ft 394 kts 259°
2026-04-26 13:38 35.62697 138.40176 32084 ft 394 kts 259°
2026-04-26 13:39 35.62339 138.33484 32084 ft 394 kts 259°
2026-04-26 13:39 35.61975 138.26758 32089 ft 395 kts 259°
2026-04-26 13:40 35.61603 138.19983 32064 ft 399 kts 259°
2026-04-26 13:40 35.61223 138.13158 32072 ft 401 kts 259°
2026-04-26 13:41 35.60844 138.06350 32052 ft 403 kts 259°
2026-04-26 13:41 35.60455 137.99495 32058 ft 402 kts 259°
2026-04-26 13:42 35.60062 137.92650 32058 ft 401 kts 259°
2026-04-26 13:42 35.59668 137.85811 32039 ft 401 kts 259°
2026-04-26 13:43 35.59267 137.78978 32040 ft 401 kts 259°
2026-04-26 13:43 35.58772 137.72152 32038 ft 401 kts 258°
2026-04-26 13:44 35.58243 137.65318 32027 ft 402 kts 258°
2026-04-26 13:44 35.57721 137.58478 32037 ft 402 kts 258°
2026-04-26 13:45 35.57070 137.51668 32028 ft 398 kts 251°
2026-04-26 13:45 35.55644 137.45135 32017 ft 396 kts 249°
2026-04-26 13:46 35.54206 137.38629 32028 ft 396 kts 249°
2026-04-26 13:46 35.52778 137.32080 32018 ft 396 kts 249°
2026-04-26 13:47 35.51365 137.25600 32012 ft 395 kts 249°
2026-04-26 13:47 35.49932 137.19108 32005 ft 394 kts 249°
2026-04-26 13:48 35.48490 137.12626 32002 ft 393 kts 249°
2026-04-26 13:48 35.47051 137.06167 32002 ft 392 kts 249°
2026-04-26 13:49 35.45612 136.99720 32000 ft 392 kts 249°
2026-04-26 13:49 35.44171 136.93280 31998 ft 392 kts 249°
2026-04-26 13:50 35.42724 136.86828 31996 ft 393 kts 249°
2026-04-26 13:50 35.41268 136.80356 31998 ft 394 kts 249°
2026-04-26 13:51 35.39816 136.73919 31995 ft 395 kts 249°
2026-04-26 13:51 35.38346 136.67419 31996 ft 396 kts 249°
2026-04-26 13:52 35.36872 136.60916 31995 ft 396 kts 249°
2026-04-26 13:52 35.35392 136.54404 31991 ft 397 kts 249°
2026-04-26 13:53 35.33906 136.47881 31995 ft 398 kts 248°
2026-04-26 13:53 35.32410 136.41337 31994 ft 399 kts 248°
2026-04-26 13:54 35.30915 136.34800 31994 ft 399 kts 248°
2026-04-26 13:54 35.29427 136.28299 31992 ft 399 kts 248°
2026-04-26 13:55 35.27419 136.19558 31983 ft 398 kts 248°
2026-04-26 13:56 35.24917 136.08706 31980 ft 398 kts 248°
2026-04-26 13:56 35.23408 136.02185 31978 ft 399 kts 248°
2026-04-26 13:57 35.21894 135.95659 31977 ft 399 kts 248°
2026-04-26 13:57 35.20375 135.89123 31978 ft 399 kts 248°
2026-04-26 13:58 35.18849 135.82581 31976 ft 400 kts 247°
2026-04-26 13:58 35.17499 135.75957 31974 ft 404 kts 251°
2026-04-26 13:59 35.16389 135.69250 31969 ft 405 kts 251°
2026-04-26 13:59 35.15272 135.62500 31966 ft 405 kts 251°
2026-04-26 14:00 35.12981 135.48988 31963 ft 407 kts 251°
2026-04-26 14:01 35.11823 135.42208 31963 ft 408 kts 251°
2026-04-26 14:01 35.10659 135.35420 31962 ft 409 kts 251°
2026-04-26 14:02 35.09487 135.28610 31953 ft 410 kts 251°
2026-04-26 14:02 35.08315 135.21776 31953 ft 412 kts 251°
2026-04-26 14:03 35.07151 135.14963 31945 ft 413 kts 251°
2026-04-26 14:03 35.05972 135.08107 31944 ft 413 kts 250°
2026-04-26 14:04 35.04782 135.01202 31945 ft 417 kts 251°
2026-04-26 14:04 35.03589 134.94278 31960 ft 417 kts 250°
2026-04-26 14:05 35.02378 134.87354 31957 ft 417 kts 250°
2026-04-26 14:05 35.01149 134.80431 31951 ft 417 kts 250°
2026-04-26 14:06 34.99921 134.73515 31942 ft 417 kts 250°
2026-04-26 14:06 34.98666 134.66620 31939 ft 415 kts 248°
2026-04-26 14:07 34.97183 134.59821 31350 ft 417 kts 247°
2026-04-26 14:07 34.96423 134.56417 30654 ft 415 kts 247°
2026-04-26 14:07 34.95668 134.53021 29874 ft 415 kts 248°
2026-04-26 14:07 34.94934 134.49675 29267 ft 410 kts 248°
2026-04-26 14:08 34.94209 134.46330 28616 ft 406 kts 248°
2026-04-26 14:08 34.93490 134.43017 28029 ft 402 kts 248°
2026-04-26 14:08 34.92776 134.39742 27442 ft 399 kts 248°
2026-04-26 14:08 34.92062 134.36460 26546 ft 404 kts 249°
2026-04-26 14:09 34.91348 134.33161 25880 ft 403 kts 250°
2026-04-26 14:09 34.90637 134.29870 25285 ft 400 kts 250°
2026-04-26 14:09 34.89928 134.26588 24678 ft 400 kts 250°
2026-04-26 14:09 34.89222 134.23321 24122 ft 397 kts 251°
2026-04-26 14:10 34.88519 134.20075 23547 ft 396 kts 251°
2026-04-26 14:10 34.87821 134.16871 22731 ft 398 kts 251°
2026-04-26 14:10 34.87090 134.13562 22002 ft 399 kts 251°
2026-04-26 14:10 34.86367 134.10303 21397 ft 396 kts 251°
2026-04-26 14:11 34.84937 134.03876 20242 ft 390 kts 251°
2026-04-26 14:11 34.84240 134.00743 19715 ft 386 kts 251°
2026-04-26 14:11 34.83539 133.97601 19172 ft 383 kts 252°
2026-04-26 14:12 34.82845 133.94486 18638 ft 380 kts 252°
2026-04-26 14:12 34.82152 133.91389 18065 ft 378 kts 252°
2026-04-26 14:12 34.81462 133.88313 17475 ft 376 kts 252°
2026-04-26 14:12 34.80777 133.85256 16902 ft 373 kts 252°
2026-04-26 14:13 34.79425 133.79229 15841 ft 366 kts 251°
2026-04-26 14:13 34.78758 133.76256 15334 ft 362 kts 251°
2026-04-26 14:13 34.78096 133.73311 14814 ft 359 kts 251°
2026-04-26 14:14 34.77439 133.70390 14298 ft 356 kts 251°
2026-04-26 14:14 34.77003 133.68452 13983 ft 353 kts 251°
2026-04-26 14:14 34.76146 133.64653 13277 ft 348 kts 251°
2026-04-26 14:14 34.75713 133.62742 12919 ft 346 kts 252°
2026-04-26 14:15 34.75080 133.59940 12387 ft 340 kts 252°
2026-04-26 14:15 34.74460 133.57190 11929 ft 336 kts 252°
2026-04-26 14:15 34.73848 133.54497 11421 ft 330 kts 252°
2026-04-26 14:15 34.73248 133.51853 10939 ft 320 kts 252°
2026-04-26 14:16 34.72671 133.49314 10740 ft 302 kts 251°
2026-04-26 14:16 34.72118 133.46886 10607 ft 296 kts 251°
2026-04-26 14:16 34.71572 133.44486 10469 ft 293 kts 252°
2026-04-26 14:16 34.71027 133.42095 10337 ft 293 kts 252°
2026-04-26 14:17 34.70482 133.39715 10241 ft 292 kts 252°
2026-04-26 14:17 34.69935 133.37324 10123 ft 295 kts 252°
2026-04-26 14:17 34.69275 133.34953 9833 ft 300 kts 238°
2026-04-26 14:17 34.67930 133.33035 9524 ft 300 kts 216°
2026-04-26 14:18 34.66204 133.31630 9162 ft 298 kts 210°
2026-04-26 14:18 34.64452 133.30293 8804 ft 296 kts 210°
2026-04-26 14:18 34.62719 133.28951 8479 ft 293 kts 210°
2026-04-26 14:18 34.61006 133.27611 8203 ft 293 kts 210°
2026-04-26 14:19 34.59316 133.26278 7938 ft 291 kts 211°
2026-04-26 14:19 34.57632 133.24951 7742 ft 286 kts 210°
2026-04-26 14:19 34.55976 133.23647 7572 ft 284 kts 211°
2026-04-26 14:19 34.54317 133.22342 7418 ft 285 kts 211°
2026-04-26 14:20 34.52646 133.21029 7238 ft 286 kts 211°
2026-04-26 14:20 34.50974 133.19716 7093 ft 288 kts 211°
2026-04-26 14:20 34.49280 133.18383 6897 ft 291 kts 211°
2026-04-26 14:20 34.47582 133.17046 6724 ft 292 kts 211°
2026-04-26 14:21 34.45878 133.15708 6544 ft 292 kts 211°
2026-04-26 14:21 34.44173 133.14372 6373 ft 290 kts 211°
2026-04-26 14:21 34.42489 133.13049 6189 ft 286 kts 211°
2026-04-26 14:21 34.40827 133.11743 6005 ft 283 kts 211°
2026-04-26 14:22 34.39174 133.10447 5821 ft 283 kts 211°
2026-04-26 14:22 34.37525 133.09157 5669 ft 283 kts 211°
2026-04-26 14:22 34.35879 133.07839 5483 ft 284 kts 217°
2026-04-26 14:22 34.34660 133.06013 5295 ft 286 kts 246°
2026-04-26 14:23 34.34225 133.03706 5153 ft 276 kts 269°
2026-04-26 14:23 34.34230 133.01447 5003 ft 261 kts 273°
2026-04-26 14:23 34.34256 132.99321 4838 ft 247 kts 272°
2026-04-26 14:23 34.34271 132.97295 4716 ft 235 kts 272°
2026-04-26 14:24 34.34278 132.95361 4555 ft 224 kts 272°
2026-04-26 14:24 34.34280 132.93516 4399 ft 216 kts 273°
2026-04-26 14:24 34.34282 132.91715 4260 ft 212 kts 273°
2026-04-26 14:24 34.34284 132.89926 4160 ft 214 kts 273°
2026-04-26 14:25 34.34284 132.88123 4026 ft 212 kts 274°
2026-04-26 14:25 34.34281 132.86374 3896 ft 204 kts 273°
2026-04-26 14:25 34.34325 132.84693 3741 ft 193 kts 282°
2026-04-26 14:25 34.34660 132.83167 3630 ft 185 kts 301°
2026-04-26 14:26 34.35342 132.81881 3567 ft 180 kts 319°
2026-04-26 14:26 34.36287 132.80915 3527 ft 178 kts 334°
2026-04-26 14:26 34.37394 132.80235 3353 ft 174 kts 348°
2026-04-26 14:26 34.38546 132.79934 3232 ft 164 kts
2026-04-26 14:27 34.39650 132.79980 2989 ft 161 kts 15°
2026-04-26 14:27 34.40686 132.80338 2783 ft 145 kts 28°
2026-04-26 14:27 34.41521 132.80882 2666 ft 130 kts 38°
2026-04-26 14:27 34.42212 132.81569 2520 ft 128 kts 48°
2026-04-26 14:28 34.42782 132.82394 2402 ft 130 kts 56°
2026-04-26 14:28 34.43220 132.83347 2252 ft 128 kts 63°
2026-04-26 14:28 34.43553 132.84366 2057 ft 135 kts 78°
2026-04-26 14:28 34.43547 132.85513 1930 ft 138 kts 85°
2026-04-26 14:29 34.43599 132.86695 1749 ft 141 kts 88°
2026-04-26 14:29 34.43595 132.87882 1564 ft 142 kts 88°
2026-04-26 14:29 34.43603 132.89090 1343 ft 143 kts 88°
2026-04-26 14:29 34.43601 132.90289 1131 ft 142 kts 89°
2026-04-26 14:30 34.43602 132.91430 1080 ft 120 kts 90°
2026-04-26 14:30 34.43603 132.92251 1076 ft 68 kts 89°
2026-04-26 14:30 34.43603 132.92701 1075 ft 41 kts 90°
2026-04-26 14:30 34.43646 132.92876 1078 ft 17 kts 34°
2026-04-26 14:31 34.43758 132.92866 1078 ft 17 kts 313°
2026-04-26 14:31 34.43770 132.92734 1081 ft 16 kts 269°
2026-04-26 14:31 34.43770 132.92602 1080 ft 15 kts 270°
2026-04-26 14:31 34.43771 132.92469 1078 ft 16 kts 270°
2026-04-26 14:32 34.43771 132.92336 1078 ft 15 kts 270°
2026-04-26 14:32 34.43772 132.92208 1079 ft 15 kts 270°
2026-04-26 14:32 34.43771 132.92083 1077 ft 15 kts 270°
2026-04-26 14:32 34.43771 132.91947 1075 ft 16 kts 269°
2026-04-26 14:33 34.43772 132.91811 1079 ft 16 kts 269°
2026-04-26 14:33 34.43788 132.91710 1078 ft 11 kts 326°
2026-04-26 14:33 34.43862 132.91701 1078 ft 7 kts 358°
2026-04-26 14:33 34.43893 132.91700 1078 ft 0 kts 359°